Temperature
12 11 10 11 12 12 12 12 12 12 13 13 12 13 13 14 14 13 14 13 13 12 12 11 11 11 10 10 10 10 10 10 10 10 10 10 10 10 10 10 10 10 10 10
12 11 12 12 12 12 12 11 12 12 13 13 12 12 14 14 13 13 13 13 13 12 12 11 11 10 10 10 10 10 10 10 10 10 10 10 10 10 10 10 10 10 10 10
11 12 12 12 12 12 12 11 11 11 12 12 12 12 13 14 14 14 13 13 13 12 12 11 10 10 10 10 10 9 9 10 10 10 10 9 9 9 9 9 10 10 10 10
12 12 12 11 11 11 11 12 11 11 10 10 12 10 12 13 12 13 12 12 12 12 12 11 10 10 10 10 10 9 9 9 9 9 9 9 9 9 10 10 10 9 9 9
11 12 11 11 11 11 11 11 11 11 10 10 11 10 11 13 12 12 12 12 12 12 11 11 10 10 10 9 10 9 9 9 9 9 9 9 9 9 9 9 9 9 9 9
11 12 11 11 11 11 11 10 10 10 10 9 11 10 11 11 12 12 12 12 12 11 11 11 10 10 10 9 9 9 9 9 9 9 9 9 9 9 9 9 9 9 9 9
11 11 11 11 10 11 10 9 9 9 9 10 12 11 11 12 12 12 11 12 11 11 11 11 10 10 9 9 9 9 9 9 9 9 9 8 8 8 9 9 9 9 9 9
11 10 11 10 10 10 10 10 9 9 9 10 11 10 11 12 12 12 12 11 11 10 10 10 10 9 9 9 9 8 8 9 9 8 8 8 8 8 8 8 8 8 8 8
11 11 11 11 11 10 10 9 10 9 9 9 11 12 12 12 11 11 11 11 11 10 10 9 9 9 9 9 8 8 8 8 8 8 8 8 8 8 8 8 8 8 8 8
11 10 11 10 10 9 10 10 9 9 9 9 11 12 10 10 10 10 10 10 10 10 9 9 9 9 8 8 8 8 8 8 8 8 8 8 8 8 8 7 7 8 8 8
11 10 9 9 9 9 9 9 9 9 9 9 9 10 11 10 10 10 10 10 10 9 9 8 8 8 8 8 8 7 7 7 7 7 8 8 7 7 7 7 7 7 7 7
10 9 8 9 10 10 10 10 10 8 8 9 8 9 11 10 10 10 10 10 10 9 8 8 8 8 8 7 7 7 7 7 7 7 7 7 7 7 7 7 7 7 6 6
10 9 8 9 9 9 9 10 10 9 8 7 8 9 10 10 10 10 9 9 9 8 8 8 7 7 7 7 7 7 7 7 7 7 7 6 6 6 6 6 6 6 6 6
9 8 8 8 9 9 9 9 9 8 7 7 8 9 10 9 9 9 9 9 8 8 7 7 7 6 6 6 6 6 6 6 6 6 6 6 6 6 6 6 6 6 6 6
8 7 8 8 9 9 9 9 9 8 8 7 8 9 9 9 9 9 9 8 8 7 7 6 6 6 6 5 5 5 6 6 6 6 6 6 6 5 5 5 5 5 5 5
7 7 7 7 8 8 8 8 8 8 8 8 8 9 9 9 9 9 8 8 7 7 6 6 6 5 5 5 5 5 5 5 5 5 5 5 5 5 5 5 5 5 5 5
7 7 6 6 8 7 6 8 8 8 8 8 8 8 8 8 8 8 7 7 6 6 5 5 5 5 5 5 5 5 5 5 5 5 5 5 5 4 4 4 4 4 4 4
6 6 5 5 6 5 8 9 9 8 8 8 8 8 8 7 7 7 7 6 6 5 5 5 5 5 4 4 4 4 4 4 4 4 4 4 4 4 4 4 4 4 4 4
6 6 5 5 5 6 8 8 8 7 7 7 7 7 7 7 7 6 6 5 5 5 5 4 4 4 4 4 4 4 4 4 4 4 4 4 4 4 4 4 3 3 3 3
5 5 4 5 5 6 7 6 7 7 6 6 7 6 6 5 4 4 5 4 4 4 4 4 4 4 4 4 4 4 4 4 4 4 4 4 3 3 3 3 3 3 3 3
3 3 3 4 4 6 6 6 6 5 5 5 6 5 5 4 4 4 4 4 4 4 3 3 3 3 3 3 3 3 3 3 3 3 3 3 3 3 3 3 3 2 2 2
4 3 3 4 4 4 5 5 4 4 5 5 4 4 4 4 3 3 3 3 3 3 3 3 3 3 3 3 3 3 3 3 3 3 3 3 2 2 2 2 2 2 2 1
4 4 4 4 4 4 4 4 4 4 4 3 3 3 3 3 2 2 2 2 2 2 2 2 2 2 2 2 2 2 2 2 2 2 2 2 2 1 1 1 1 1 1 1
4 4 4 3 4 4 4 3 3 3 3 3 2 2 2 2 2 1 1 1 1 2 2 2 2 2 2 2 2 2 1 1 1 1 1 1 1 1 1 1 1 1 0 0
3 3 3 3 3 3 3 3 2 2 2 2 2 2 1 1 1 1 1 1 1 1 1 1 1 1 1 1 1 1 1 1 1 1 1 1 0 0 0 0 0 -0 -0 -0
2 2 2 2 2 2 2 2 1 2 1 1 1 1 1 0 0 0 0 0 0 0 0 0 1 1 1 0 1 1 1 0 0 0 0 -0 -0 -0 -0 -1 -1 -1 -1 -1
Wind_Speed
3 2 3 3 3 6 7 8 9 8 5 4 8 9 7 4 3 3 3 3 3 3 3 4 4 4 4 5 5 4 4 3 3 3 3 3 2 2 2 3 6 7 6 6
2 3 3 4 4 6 7 9 9 8 5 5 7 9 6 3 2 1 2 3 3 3 3 4 4 5 4 4 5 5 4 4 3 2 2 3 3 2 2 2 4 6 6 6
4 3 2 4 6 7 7 6 6 8 8 7 6 6 4 2 2 1 1 2 2 2 3 4 4 4 4 4 5 5 5 5 4 3 2 4 3 2 2 2 2 3 5 6
3 3 3 5 5 6 6 3 6 7 7 5 3 4 4 3 1 1 1 1 2 2 2 4 4 5 5 4 4 5 5 5 5 5 4 5 4 4 3 3 3 2 4 5
3 1 3 5 4 4 4 5 7 8 7 7 5 4 5 2 2 2 1 1 2 2 1 3 4 5 5 4 4 4 4 4 4 5 5 5 4 3 3 4 4 3 3 4
6 3 2 3 3 3 4 6 7 6 3 5 6 5 4 1 1 1 2 1 1 1 1 1 3 4 4 4 4 4 5 4 5 5 5 6 6 5 6 5 5 3 2 3
4 5 4 2 3 2 3 3 3 2 3 5 2 3 4 2 2 1 2 3 2 1 1 0 2 3 3 4 4 4 5 5 5 5 5 5 6 6 7 6 5 5 3 3
4 4 5 4 3 2 3 2 1 3 3 3 2 5 3 4 4 2 2 3 3 3 2 2 1 3 3 4 4 4 4 4 5 5 5 4 4 4 4 6 6 6 5 5
3 3 2 3 2 2 2 2 1 3 5 5 5 4 3 3 3 2 3 3 4 3 3 2 2 2 4 4 4 4 3 3 4 4 4 4 4 4 4 5 5 4 4 5
3 4 2 4 3 4 4 2 1 2 3 5 6 4 2 2 1 2 3 4 4 4 4 3 2 2 2 4 4 4 3 3 3 3 3 3 3 4 4 4 5 5 5 5
3 3 2 3 6 6 5 4 4 4 4 3 4 3 2 3 2 1 2 3 3 4 3 2 2 1 1 2 3 3 3 3 3 3 3 2 3 3 4 4 4 5 5 6
2 3 5 6 2 1 4 5 4 3 5 4 4 4 3 5 4 2 2 3 3 3 3 2 2 2 2 1 2 2 2 2 3 3 3 3 3 3 4 4 5 5 5 6
1 3 4 3 1 2 4 6 6 5 3 5 5 5 1 4 4 3 3 4 3 4 3 3 3 2 2 2 1 1 1 1 2 3 3 3 3 3 3 4 4 5 5 5
2 5 7 7 4 2 5 6 7 6 5 7 8 8 5 3 3 4 4 4 4 4 4 4 3 2 2 2 1 1 1 1 1 2 2 3 3 3 3 3 3 4 4 5
3 5 8 11 10 8 9 9 9 11 11 9 9 8 5 2 3 4 4 4 5 4 4 4 3 3 2 2 1 1 1 0 0 1 2 2 2 2 2 2 2 3 4 5
4 5 6 9 10 10 12 12 12 13 12 13 12 11 4 2 2 3 5 5 5 5 5 5 4 3 3 2 1 1 0 0 1 1 1 1 2 2 3 3 3 3 3 4
4 5 4 7 6 8 10 10 11 9 8 8 10 7 2 2 3 2 3 4 4 5 5 5 4 4 3 2 1 1 1 0 1 1 1 1 2 2 2 3 3 3 3 3
7 6 4 4 4 9 6 2 5 7 8 7 4 1 1 1 1 1 3 4 4 5 5 5 4 4 3 2 2 1 1 1 0 1 1 1 1 2 2 2 2 2 2 3
8 7 5 4 6 9 5 2 2 4 4 2 2 1 2 3 2 2 5 5 4 4 4 4 4 3 3 3 2 2 1 1 0 0 0 0 1 1 2 2 2 2 2 2
4 6 6 5 5 6 1 1 1 1 3 1 1 1 2 2 1 2 4 5 5 5 4 4 4 3 3 3 2 2 1 0 1 1 1 1 0 1 2 2 2 1 2 2
4 5 8 9 7 5 1 1 2 3 2 3 3 3 2 1 1 2 4 5 5 5 5 5 4 4 3 3 2 2 2 2 1 1 1 0 1 1 1 1 1 2 2 2
6 6 6 6 7 6 1 2 2 1 3 4 4 4 3 2 3 4 4 4 4 4 4 4 4 4 4 3 2 2 3 2 1 0 0 0 0 0 1 1 1 1 2 2
5 4 2 4 3 1 3 3 3 4 3 3 3 4 3 3 4 4 4 4 4 4 4 4 4 4 4 4 2 3 3 2 1 1 0 0 0 0 1 1 2 1 1 2
3 2 2 3 1 1 2 3 4 4 3 3 3 3 3 3 4 4 4 4 4 4 4 4 4 4 5 4 4 3 3 3 1 1 1 0 0 0 0 1 1 2 2 2
4 3 3 4 2 1 2 3 3 3 3 4 4 4 4 3 4 4 4 4 4 4 4 4 4 4 5 4 4 4 3 3 2 1 1 0 0 1 1 1 1 2 3 3
4 4 4 4 2 2 2 2 2 2 3 3 3 4 4 3 4 4 4 4 5 5 4 4 4 4 4 4 4 4 3 3 2 1 1 1 1 1 0 1 2 2 3 3
Wind_Direction
198 241 267 292 288 289 297 290 289 293 293 289 273 277 276 262 274 287 281 261 251 220 183 161 153 148 142 139 142 143 141 140 142 148 147 145 162 149 131 132 140 143 148 146
254 248 277 297 281 271 274 281 287 297 304 292 278 279 267 225 218 249 281 277 259 212 172 155 152 155 159 154 153 157 159 159 163 167 164 151 148 152 142 126 133 145 148 150
253 283 313 279 279 278 272 272 290 304 311 272 276 282 246 224 203 228 266 294 281 222 181 169 166 167 165 167 168 174 174 171 165 151 139 132 124 123 136 147 143 142 148 150
265 257 286 280 276 283 283 314 302 303 306 285 261 283 256 228 218 331 358 316 304 290 197 173 174 174 176 179 173 173 173 174 170 158 161 163 159 165 174 160 146 143 148 149
264 255 269 272 283 279 284 322 295 283 277 285 264 253 266 199 215 286 306 285 288 292 245 188 180 178 173 169 166 173 169 177 174 169 171 179 172 162 145 142 144 151 151 152
247 229 241 267 295 274 292 291 275 255 259 268 237 221 273 206 216 273 314 306 283 279 279 215 180 162 163 156 156 169 171 179 180 179 178 185 179 164 154 153 157 157 158 158
253 211 191 214 275 243 256 290 318 296 230 246 201 213 247 136 84 50 340 342 347 6 0 332 154 147 159 167 170 180 176 181 186 187 189 191 183 173 169 165 166 164 168 173
263 249 184 185 211 246 247 256 255 280 276 291 236 231 210 123 100 63 24 12 17 26 18 11 100 152 164 168 171 179 184 185 188 190 189 187 184 180 176 173 171 178 179 178
266 263 143 178 201 240 250 225 265 289 290 278 248 210 150 102 82 42 6 13 21 27 28 30 20 134 158 169 172 178 184 180 184 187 184 185 183 181 181 174 169 171 166 162
290 278 214 152 190 235 253 289 269 238 280 284 273 241 218 151 109 29 9 9 14 21 24 24 19 36 127 161 163 164 169 172 173 171 178 182 176 176 175 167 171 168 164 159
260 263 230 191 208 206 193 217 228 246 248 261 288 292 50 119 117 66 10 8 24 16 12 12 7 20 81 122 144 155 159 154 159 165 162 161 165 168 163 166 176 169 161 161
224 263 254 233 203 190 214 218 210 228 259 247 264 274 74 89 82 74 19 359 19 31 18 21 27 36 45 71 127 151 158 157 165 167 165 169 172 172 172 176 175 169 166 166
209 235 272 258 194 194 237 229 229 247 269 254 250 255 108 76 51 42 28 11 14 27 29 32 35 28 33 30 42 81 124 141 144 152 160 163 171 178 185 182 176 171 168 169
265 241 232 243 262 240 251 242 228 225 230 248 243 261 275 326 0 8 13 12 10 15 27 28 20 14 36 41 31 21 31 85 128 144 159 172 180 184 186 183 175 173 170 173
219 248 256 266 277 274 260 253 236 230 231 240 259 269 277 305 343 352 4 11 13 13 16 9 3 1 19 38 33 18 11 45 153 167 177 189 179 173 172 174 177 172 175 181
218 249 267 269 263 264 265 253 242 240 240 246 262 273 298 327 350 8 17 15 7 2 357 352 351 353 355 356 352 341 276 245 192 187 196 185 172 174 174 177 175 174 180 178
224 241 256 265 268 285 262 239 228 227 228 230 244 252 292 326 345 356 5 3 356 356 348 343 338 334 330 326 334 302 231 178 167 190 186 188 178 176 173 170 174 182 185 181
232 239 242 265 271 246 243 190 207 217 233 227 235 270 325 324 329 31 48 30 5 354 345 339 335 334 334 340 4 8 62 90 154 178 172 187 184 182 174 171 187 194 189 187
221 218 229 231 247 264 241 204 177 205 241 209 210 269 4 -0 355 55 49 31 7 356 349 338 332 333 344 352 1 14 38 67 45 350 304 311 174 177 185 197 200 200 185 192
234 222 224 227 237 247 260 108 16 130 232 47 102 102 57 41 335 307 5 6 359 360 359 353 347 353 359 352 1 7 347 357 293 277 270 262 209 204 206 203 200 203 185 194
187 209 221 230 240 258 20 92 99 174 245 30 45 53 54 35 299 317 348 356 358 357 355 357 359 355 348 349 3 352 331 306 300 313 308 259 216 213 196 183 184 178 174 173
192 198 208 214 229 245 71 109 140 135 52 44 37 34 37 9 350 351 354 351 350 353 354 358 356 349 348 356 3 338 316 311 323 358 341 319 294 195 157 165 178 176 173 177
214 211 214 208 224 41 61 76 60 53 46 26 15 9 15 354 341 341 341 340 341 346 346 348 347 343 345 349 349 322 315 334 349 18 325 318 70 75 155 170 181 186 189 193
279 310 291 283 260 59 62 61 46 44 33 14 4 357 356 337 328 331 335 334 335 339 339 340 342 340 335 338 342 336 334 337 337 322 309 346 140 212 185 185 194 196 206 208
280 296 281 270 284 338 24 28 19 25 23 10 0 349 337 325 321 324 327 330 332 334 333 334 332 326 326 335 340 343 344 343 334 315 290 276 247 237 242 244 239 230 232 222
251 255 254 264 278 282 296 337 343 347 355 349 343 336 340 338 328 332 330 330 329 330 331 333 331 326 327 339 339 341 348 346 333 309 289 276 259 250 249 282 314 301 262 262
Height
1506 1509 1509 1506 1504 1504 1503 1502 1500 1495 1490 1490 1489 1485 1481 1479 1479 1478 1478 1478 1478 1478 1479 1479 1479 1480 1481 1481 1482 1483 1484 1485 1487 1488 1489 1491 1493 1496 1498 1499 1501 1503 1505 1507
1506 1508 1505 1503 1502 1502 1502 1501 1498 1493 1488 1488 1486 1483 1477 1476 1476 1476 1476 1476 1476 1476 1477 1477 1477 1477 1478 1479 1480 1480 1482 1483 1484 1486 1487 1490 1492 1494 1496 1498 1499 1501 1503 1505
1506 1504 1502 1502 1502 1501 1500 1500 1498 1496 1490 1486 1486 1484 1477 1474 1474 1475 1474 1474 1474 1474 1474 1474 1475 1475 1476 1476 1477 1478 1479 1481 1482 1484 1486 1487 1490 1492 1493 1495 1497 1499 1501 1503
1503 1501 1501 1501 1500 1500 1500 1495 1495 1495 1497 1494 1487 1495 1479 1473 1473 1473 1473 1473 1472 1472 1473 1473 1473 1473 1473 1474 1475 1476 1477 1479 1480 1481 1483 1484 1485 1488 1490 1492 1494 1497 1499 1500
1502 1500 1501 1501 1499 1498 1498 1495 1495 1495 1495 1495 1488 1493 1481 1471 1473 1472 1471 1471 1471 1471 1471 1471 1471 1471 1472 1473 1473 1474 1475 1476 1478 1479 1481 1482 1484 1486 1488 1490 1492 1494 1496 1498
1499 1499 1499 1498 1497 1497 1497 1496 1494 1493 1496 1499 1485 1488 1481 1474 1471 1470 1470 1469 1469 1469 1469 1469 1469 1469 1470 1471 1471 1472 1473 1474 1475 1476 1478 1480 1482 1483 1485 1487 1489 1492 1494 1495
1497 1496 1496 1497 1498 1497 1498 1501 1503 1501 1501 1493 1478 1481 1479 1469 1468 1468 1468 1468 1467 1467 1467 1467 1467 1467 1468 1468 1469 1470 1470 1471 1473 1474 1475 1477 1479 1481 1482 1484 1486 1488 1490 1492
1500 1500 1494 1495 1496 1498 1497 1498 1506 1505 1498 1488 1479 1481 1472 1466 1467 1467 1468 1468 1467 1466 1466 1465 1465 1465 1465 1466 1467 1468 1468 1469 1471 1472 1473 1475 1477 1478 1480 1482 1484 1486 1488 1490
1498 1496 1492 1492 1493 1495 1495 1497 1495 1500 1495 1493 1481 1469 1468 1465 1467 1467 1468 1467 1466 1465 1465 1464 1464 1464 1464 1464 1465 1466 1467 1467 1469 1470 1471 1472 1474 1475 1477 1479 1481 1483 1485 1487
1493 1496 1492 1492 1494 1495 1495 1494 1498 1501 1501 1495 1479 1470 1473 1469 1468 1468 1467 1466 1466 1465 1464 1464 1463 1463 1463 1463 1464 1465 1465 1466 1467 1468 1469 1470 1471 1473 1475 1476 1478 1480 1482 1484
1493 1496 1494 1493 1493 1491 1494 1495 1494 1495 1493 1496 1490 1480 1466 1466 1466 1467 1467 1466 1466 1465 1464 1463 1462 1462 1462 1462 1462 1463 1463 1464 1465 1466 1467 1468 1469 1471 1473 1474 1475 1477 1479 1481
1492 1495 1495 1489 1484 1485 1486 1487 1490 1497 1494 1489 1490 1484 1465 1465 1466 1466 1467 1466 1465 1465 1464 1463 1462 1461 1461 1461 1461 1461 1461 1462 1463 1464 1465 1466 1467 1469 1470 1471 1472 1474 1476 1478
1491 1494 1497 1490 1491 1489 1487 1484 1484 1487 1490 1492 1491 1482 1466 1465 1466 1466 1466 1466 1465 1464 1463 1463 1462 1461 1461 1460 1460 1460 1460 1460 1461 1462 1463 1464 1465 1466 1467 1468 1469 1471 1472 1474
1490 1491 1493 1491 1483 1484 1484 1482 1482 1486 1493 1489 1481 1474 1469 1467 1467 1467 1466 1466 1465 1464 1463 1462 1461 1461 1460 1459 1459 1458 1458 1459 1459 1460 1460 1461 1462 1463 1464 1465 1466 1468 1469 1471
1489 1490 1485 1482 1478 1478 1478 1478 1478 1480 1480 1481 1473 1470 1467 1467 1467 1466 1466 1465 1464 1463 1462 1461 1460 1460 1459 1458 1458 1458 1457 1457 1457 1458 1458 1459 1460 1460 1461 1462 1463 1465 1466 1467
1487 1487 1484 1482 1477 1475 1474 1471 1471 1472 1471 1470 1469 1468 1465 1465 1465 1465 1465 1464 1464 1463 1462 1461 1460 1459 1457 1457 1456 1456 1455 1455 1455 1456 1456 1457 1457 1458 1458 1459 1460 1462 1463 1464
1485 1485 1485 1482 1475 1474 1473 1463 1463 1464 1463 1465 1466 1465 1464 1464 1464 1464 1464 1464 1463 1462 1461 1460 1458 1457 1456 1455 1454 1454 1453 1453 1453 1453 1454 1454 1455 1455 1456 1457 1458 1459 1460 1461
1481 1483 1485 1482 1479 1481 1461 1455 1454 1457 1458 1459 1460 1461 1462 1463 1463 1463 1463 1463 1462 1461 1460 1458 1457 1455 1454 1453 1453 1452 1451 1451 1451 1451 1451 1452 1452 1453 1454 1454 1455 1456 1457 1457
1474 1479 1481 1481 1477 1465 1457 1455 1455 1457 1457 1457 1458 1459 1460 1461 1461 1462 1462 1462 1461 1460 1458 1457 1455 1454 1453 1452 1451 1450 1449 1449 1449 1448 1449 1449 1450 1450 1451 1451 1452 1452 1453 1454
1472 1474 1478 1476 1474 1466 1457 1455 1453 1456 1460 1457 1456 1458 1459 1460 1463 1463 1461 1460 1459 1457 1456 1454 1453 1452 1451 1450 1449 1448 1447 1447 1446 1446 1446 1447 1447 1447 1447 1448 1449 1449 1450 1450
1475 1475 1475 1473 1470 1460 1457 1455 1454 1462 1462 1458 1457 1458 1459 1460 1462 1462 1459 1458 1457 1456 1454 1453 1451 1450 1449 1448 1447 1446 1445 1445 1445 1444 1444 1444 1444 1444 1444 1445 1445 1446 1446 1446
1467 1470 1470 1468 1467 1464 1458 1456 1459 1460 1459 1458 1458 1458 1459 1459 1459 1458 1458 1456 1455 1454 1452 1451 1450 1448 1448 1447 1445 1444 1444 1443 1443 1442 1442 1442 1442 1442 1442 1442 1442 1442 1442 1443
1460 1461 1460 1460 1461 1458 1457 1457 1458 1458 1458 1458 1458 1458 1458 1458 1457 1457 1456 1455 1453 1452 1451 1450 1448 1447 1446 1445 1444 1442 1441 1441 1440 1439 1439 1439 1439 1439 1439 1439 1438 1438 1439 1439
1459 1457 1458 1459 1457 1457 1457 1457 1458 1458 1458 1458 1458 1458 1457 1456 1456 1455 1454 1453 1452 1450 1449 1448 1446 1445 1444 1443 1442 1440 1439 1438 1438 1437 1436 1436 1436 1436 1436 1436 1435 1435 1435 1436
1460 1460 1458 1457 1457 1457 1457 1457 1458 1457 1457 1457 1457 1456 1456 1455 1454 1453 1452 1451 1449 1448 1447 1445 1444 1443 1441 1440 1439 1438 1437 1436 1435 1434 1434 1433 1433 1433 1432 1432 1433 1432 1433 1433
1459 1459 1459 1457 1457 1457 1457 1457 1457 1456 1455 1455 1454 1454 1453 1453 1452 1451 1449 1448 1447 1446 1444 1443 1442 1440 1439 1438 1437 1436 1435 1434 1432 1431 1431 1430 1430 1430 1429 1429 1429 1429 1430 1430